EW9060 Weather Reports


time (UTC)temp
F
wind
direction
speed
knots
gust
knots
rain 1hr
in
rain 24hr
in
rain mn
in
humidity
%
barometer
mb
20260904170045 66 63 0.9 5.2 0.00 0.02 0.00 73 1014.9
20260904164548 65 117 1.7 5.2 0.00 0.02 0.00 75 1014.8
20260904163039 65 52 1.7 4.3 0.00 0.02 0.00 75 1014.6
20260904161536 64 145 0.9 1.7 0.00 0.02 0.00 78 1014.6
20260904160034 63 175 0.9 4.3 0.00 0.02 0.00 79 1014.5
20260904154533 62 161 0.0 5.2 0.00 0.02 0.00 81 1014.5
20260904153034 61 11 1.7 4.3 0.00 0.02 0.00 82 1014.4
20260904151529 61 11 1.7 4.3 0.00 0.02 0.00 84 1014.4
20260904150035 60 11 0.9 3.5 0.00 0.02 0.00 86 1014.2
20260904144522 59 15 0.9 4.3 0.00 0.02 0.00 87 1014.0
20260904143021 58 129 0.9 2.6 0.00 0.02 0.00 88 1013.9
20260904141518 59 152 0.0 4.3 0.00 0.02 0.00 87 1013.7
20260904140019 59 169 0.0 1.7 0.00 0.02 0.00 87 1013.6
20260904134514 59 194 0.0 2.6 0.00 0.02 0.00 86 1013.2
20260904133012 60 227 0.0 2.6 0.00 0.02 0.00 86 1013.1
20260904131509 60 171 0.0 2.6 0.00 0.02 0.00 85 1013.0
20260904130007 60 160 0.0 4.3 0.00 0.02 0.00 85 1012.9
20260904124507 61 150 0.0 1.7 0.00 0.02 0.00 85 1012.8
20260904123003 61 164 0.0 5.2 0.00 0.02 0.00 85 1012.6
20260904121502 62 153 0.0 4.3 0.00 0.02 0.00 85 1012.6
20260904120103 62 192 0.9 3.5 0.00 0.02 0.00 85 1012.5
20260904114559 62 238 0.0 0.9 0.00 0.02 0.00 86 1012.5
20260904113058 62 185 0.0 0.9 0.00 0.02 0.00 86 1012.5
20260904111556 62 190 0.0 1.7 0.00 0.02 0.00 86 1012.4
20260904110055 62 148 0.0 2.6 0.00 0.02 0.00 86 1012.3
20260904104603 62 159 0.0 4.3 0.00 0.02 0.00 86 1012.3
20260904103108 62 150 1.7 4.3 0.00 0.02 0.00 86 1012.2
20260904101554 62 172 0.0 2.6 0.00 0.02 0.00 87 1012.1
20260904100054 62 145 0.9 3.5 0.00 0.02 0.00 87 1012.1
20260904094553 62 194 0.0 4.3 0.00 0.02 0.00 87 1012.1
20260904093052 62 193 0.0 4.3 0.00 0.02 0.00 87 1012.1
20260904091605 62 144 0.0 2.6 0.00 0.02 0.00 88 1012.1
20260904090051 62 185 0.0 3.5 0.00 0.02 0.00 87 1012.1
20260904084550 62 129 1.7 7.8 0.00 0.02 0.00 88 1012.1
20260904083105 62 207 0.9 6.1 0.00 0.02 0.00 88 1012.2
20260904081549 63 149 1.7 6.1 0.00 0.02 0.00 89 1012.3
20260904080046 63 155 0.9 5.2 0.00 0.02 0.00 89 1012.3
20260904074601 63 157 0.0 7.0 0.00 0.02 0.00 89 1012.2
20260904073044 63 198 0.9 4.3 0.02 0.02 0.00 88 1012.2
20260904071541 64 142 0.9 2.6 0.02 0.02 0.00 88 1012.0
20260904070039 64 120 0.9 5.2 0.02 0.02 0.00 88 1011.9
20260904064538 64 102 0.0 2.6 0.01 0.01 0.01 88 1012.0
20260904063043 64 99 0.9 3.5 0.00 0.00 0.00 88 1012.0
20260904061540 64 96 0.0 3.5 0.00 0.00 0.00 87 1012.2
20260904060035 64 81 0.0 1.7 0.00 0.00 0.00 86 1012.2
20260904054536 64 74 0.0 1.7 0.00 0.00 0.00 86 1012.3
20260904053037 64 44 0.0 2.6 0.00 0.00 0.00 85 1012.3
20260904051534 65 59 0.0 1.7 0.00 0.00 0.00 85 1012.3
20260904050035 65 349 0.0 0.0 0.00 0.00 0.00 85 1012.4
20260904044533 65 323 0.0 0.0 0.00 0.00 0.00 84 1012.4
20260904043032 65 323 0.0 0.0 0.00 0.00 0.00 84 1012.4
20260904041534 65 64 0.0 0.0 0.00 0.00 0.00 83 1012.3
20260904040031 65 81 0.0 0.0 0.00 0.00 0.00 81 1012.3
20260904034531 65 100 0.0 0.0 0.00 0.00 0.00 80 1012.1
20260904033032 65 87 0.9 2.6 0.00 0.00 0.00 80 1011.9
20260904031529 65 69 0.0 2.6 0.00 0.00 0.00 80 1011.9
20260904030027 66 51 0.0 2.6 0.00 0.00 0.00 78 1012.0
20260904024527 67 316 0.0 2.6 0.00 0.00 0.00 77 1012.1
20260904023025 68 307 0.0 5.2 0.00 0.00 0.00 75 1012.1
20260904021534 69 304 1.7 7.0 0.00 0.00 0.00 71 1012.2
20260904020024 69 275 2.6 7.0 0.00 0.00 0.00 70 1012.0
20260904014523 70 280 0.0 7.0 0.00 0.00 0.00 70 1012.1
20260904013024 70 292 2.6 5.2 0.00 0.00 0.00 70 1012.2
20260904011522 71 292 1.7 7.8 0.00 0.00 0.00 69 1012.2
20260904010021 71 242 3.5 6.1 0.00 0.00 0.00 69 1012.2
20260904004519 71 261 1.7 8.7 0.00 0.00 0.00 68 1012.4
20260904003019 72 232 3.5 9.6 0.00 0.00 0.00 67 1012.4
20260904001522 72 281 4.3 9.6 0.00 0.00 0.00 66 1012.4
20260904000019 73 190 1.7 8.7 0.00 0.00 0.00 66 1012.3
20260903234516 73 290 3.5 14.8 0.00 0.00 0.00 65 1012.3
20260903233015 74 165 2.6 9.6 0.00 0.00 0.00 63 1012.5
20260903231512 74 205 5.2 13.0 0.00 0.00 0.00 62 1012.6
20260903230013 74 258 5.2 12.2 0.00 0.00 0.00 62 1012.9
20260903224506 74 263 6.1 12.2 0.00 0.00 0.00 63 1012.9
20260903223004 74 227 4.3 10.4 0.00 0.00 0.00 63 1013.0
20260903221503 74 188 3.5 10.4 0.00 0.00 0.00 63 1013.1
20260903220002 74 242 2.6 8.7 0.00 0.00 0.00 63 1013.3
20260903214501 74 161 1.7 9.6 0.00 0.00 0.00 63 1013.3
20260903213058 74 254 3.5 10.4 0.00 0.00 0.00 62 1013.3
20260903211557 74 181 2.6 7.8 0.00 0.00 0.00 62 1013.5
20260903210059 74 171 4.3 13.9 0.00 0.00 0.00 62 1013.9
20260903204550 74 252 3.5 12.2 0.00 0.00 0.00 62 1013.9
20260903203050 73 194 3.5 10.4 0.00 0.00 0.00 62 1014.0
20260903201543 74 153 4.3 12.2 0.00 0.00 0.00 62 1014.1
20260903200039 73 182 2.6 13.0 0.00 0.00 0.00 63 1014.2
20260903194535 71 240 1.7 8.7 0.00 0.00 0.00 66 1014.4
20260903193033 71 165 2.6 7.0 0.00 0.00 0.00 67 1014.6
20260903191532 71 13 1.7 10.4 0.00 0.00 0.00 66 1014.7
20260903190031 71 13 2.6 11.3 0.00 0.00 0.00 66 1014.9
20260903184529 71 239 3.5 10.4 0.00 0.00 0.00 65 1015.1
20260903183029 72 175 4.3 7.8 0.00 0.00 0.00 64 1015.1
20260903181526 72 217 3.5 8.7 0.00 0.00 0.00 65 1015.1
20260903180031 72 194 3.5 7.8 0.00 0.00 0.00 66 1015.0
20260903174521 70 186 1.7 5.2 0.00 0.00 0.00 69 1015.1
20260903173017 69 242 0.9 6.1 0.00 0.00 0.00 71 1015.2
20260903171524 68 174 0.9 7.8 0.00 0.00 0.00 74 1015.2